contact:dominique.lefevre@mio.osupytheas.fr, maurice.libes@osupytheas.fr, didier.mallarino@osupytheas.fr
Project:EMSO http://www.emso-fr.org/EMSO-France
Depth: 2436.0 m
Title:EMSO Ligure Ouest : Data MII capteur OXYGEN
DateTime,Latitude,Longitude,Optode-Type,Optode_Serial,Oxygen,Saturation_Oxygen,Temperature
DateTime,Latitude,Longitude,Optode-Type,Optode_Serial,µmol.l-1,%,degC
2019-07-05T00:05:12,42.805,6.029,4330,1995,194.384,59.444,13.287
2019-07-05T00:08:12,42.805,6.029,4330,1995,194.366,59.438,13.287
2019-07-05T00:11:12,42.805,6.029,4330,1995,194.385,59.445,13.288
2019-07-05T00:14:12,42.805,6.029,4330,1995,194.393,59.448,13.288
2019-07-05T00:17:12,42.805,6.029,4330,1995,194.384,59.445,13.288
2019-07-05T00:20:12,42.805,6.029,4330,1995,194.372,59.441,13.288
2019-07-05T00:23:12,42.805,6.029,4330,1995,194.369,59.440,13.288
2019-07-05T00:26:12,42.805,6.029,4330,1995,194.368,59.440,13.288
2019-07-05T00:29:12,42.805,6.029,4330,1995,194.340,59.432,13.288
2019-07-05T00:32:12,42.805,6.029,4330,1995,194.364,59.439,13.288
2019-07-05T00:35:12,42.805,6.029,4330,1995,194.345,59.434,13.288
2019-07-05T00:38:12,42.805,6.029,4330,1995,194.295,59.418,13.288
2019-07-05T00:41:12,42.805,6.029,4330,1995,194.384,59.445,13.288
2019-07-05T00:44:12,42.805,6.029,4330,1995,194.337,59.431,13.288
2019-07-05T00:47:12,42.805,6.029,4330,1995,194.359,59.438,13.288
2019-07-05T00:50:12,42.805,6.029,4330,1995,194.330,59.429,13.288
2019-07-05T00:53:12,42.805,6.029,4330,1995,194.377,59.444,13.288
2019-07-05T00:56:12,42.805,6.029,4330,1995,194.252,59.405,13.288
2019-07-05T00:59:12,42.805,6.029,4330,1995,194.325,59.428,13.289
2019-07-05T01:02:12,42.805,6.029,4330,1995,194.309,59.423,13.288
2019-07-05T01:05:12,42.805,6.029,4330,1995,194.357,59.438,13.289
2019-07-05T01:08:12,42.805,6.029,4330,1995,194.337,59.432,13.289
2019-07-05T01:11:12,42.805,6.029,4330,1995,194.309,59.424,13.289
2019-07-05T01:14:12,42.805,6.029,4330,1995,194.320,59.426,13.288
2019-07-05T01:17:12,42.805,6.029,4330,1995,194.310,59.423,13.288
2019-07-05T01:20:12,42.805,6.029,4330,1995,194.279,59.414,13.289
2019-07-05T01:23:12,42.805,6.029,4330,1995,194.337,59.432,13.289
2019-07-05T01:26:12,42.805,6.029,4330,1995,194.303,59.421,13.289
2019-07-05T01:29:12,42.805,6.029,4330,1995,194.300,59.421,13.289
2019-07-05T01:32:12,42.805,6.029,4330,1995,194.303,59.422,13.289
2019-07-05T01:35:12,42.805,6.029,4330,1995,194.283,59.415,13.289
2019-07-05T01:38:12,42.805,6.029,4330,1995,194.297,59.419,13.288
2019-07-05T01:41:12,42.805,6.029,4330,1995,194.285,59.416,13.289
2019-07-05T01:44:12,42.805,6.029,4330,1995,194.252,59.405,13.288
2019-07-05T01:47:12,42.805,6.029,4330,1995,194.335,59.431,13.288
2019-07-05T01:50:12,42.805,6.029,4330,1995,194.310,59.423,13.288
2019-07-05T01:53:12,42.805,6.029,4330,1995,194.270,59.410,13.288
2019-07-05T01:56:12,42.805,6.029,4330,1995,194.283,59.415,13.288
2019-07-05T01:59:12,42.805,6.029,4330,1995,194.311,59.423,13.288
2019-07-05T02:02:12,42.805,6.029,4330,1995,194.264,59.408,13.288
2019-07-05T02:05:12,42.805,6.029,4330,1995,194.243,59.402,13.288
2019-07-05T02:08:12,42.805,6.029,4330,1995,194.299,59.419,13.288
2019-07-05T02:11:12,42.805,6.029,4330,1995,194.250,59.404,13.288
2019-07-05T02:14:12,42.805,6.029,4330,1995,194.283,59.415,13.288
2019-07-05T02:17:12,42.805,6.029,4330,1995,194.270,59.410,13.288
2019-07-05T02:20:12,42.805,6.029,4330,1995,194.244,59.402,13.288
2019-07-05T02:23:12,42.805,6.029,4330,1995,194.248,59.404,13.288
2019-07-05T02:26:12,42.805,6.029,4330,1995,194.278,59.413,13.288
2019-07-05T02:29:12,42.805,6.029,4330,1995,194.275,59.412,13.288
2019-07-05T02:32:12,42.805,6.029,4330,1995,194.211,59.393,13.288
2019-07-05T02:35:12,42.805,6.029,4330,1995,194.279,59.413,13.288
2019-07-05T02:41:12,42.805,6.029,4330,1995,194.250,59.403,13.287
2019-07-05T02:44:12,42.805,6.029,4330,1995,194.243,59.402,13.288
2019-07-05T02:47:12,42.805,6.029,4330,1995,194.270,59.411,13.289
2019-07-05T02:50:12,42.805,6.029,4330,1995,194.210,59.393,13.288
2019-07-05T02:53:12,42.805,6.029,4330,1995,194.272,59.411,13.288
2019-07-05T02:56:12,42.805,6.029,4330,1995,194.262,59.408,13.288
2019-07-05T02:59:12,42.805,6.029,4330,1995,194.225,59.397,13.288
2019-07-05T03:02:12,42.805,6.029,4330,1995,194.258,59.407,13.288
2019-07-05T03:05:12,42.805,6.029,4330,1995,194.248,59.404,13.288
2019-07-05T03:08:12,42.805,6.029,4330,1995,194.238,59.400,13.288
2019-07-05T03:11:12,42.805,6.029,4330,1995,194.239,59.401,13.288
2019-07-05T03:14:12,42.805,6.029,4330,1995,194.243,59.402,13.288
2019-07-05T03:17:12,42.805,6.029,4330,1995,194.224,59.396,13.288
2019-07-05T03:20:12,42.805,6.029,4330,1995,194.201,59.389,13.288
2019-07-05T03:23:12,42.805,6.029,4330,1995,194.214,59.393,13.288
2019-07-05T03:26:12,42.805,6.029,4330,1995,194.204,59.390,13.288
2019-07-05T03:29:12,42.805,6.029,4330,1995,194.261,59.408,13.288
2019-07-05T03:32:12,42.805,6.029,4330,1995,194.202,59.390,13.288
2019-07-05T03:35:12,42.805,6.029,4330,1995,194.215,59.394,13.288
2019-07-05T03:38:12,42.805,6.029,4330,1995,194.228,59.397,13.288
2019-07-05T03:41:12,42.805,6.029,4330,1995,194.206,59.391,13.288
2019-07-05T03:44:12,42.805,6.029,4330,1995,194.210,59.392,13.288
2019-07-05T03:47:12,42.805,6.029,4330,1995,194.212,59.393,13.288
2019-07-05T03:50:12,42.805,6.029,4330,1995,194.236,59.401,13.288
2019-07-05T03:53:12,42.805,6.029,4330,1995,194.206,59.391,13.288
2019-07-05T03:56:12,42.805,6.029,4330,1995,194.208,59.392,13.288
2019-07-05T03:59:12,42.805,6.029,4330,1995,194.254,59.406,13.288
2019-07-05T04:02:12,42.805,6.029,4330,1995,194.226,59.397,13.288
2019-07-05T04:05:12,42.805,6.029,4330,1995,194.257,59.407,13.288
2019-07-05T04:08:12,42.805,6.029,4330,1995,194.244,59.403,13.288
2019-07-05T04:11:12,42.805,6.029,4330,1995,194.265,59.410,13.289
2019-07-05T04:14:12,42.805,6.029,4330,1995,194.205,59.392,13.289
2019-07-05T04:17:12,42.805,6.029,4330,1995,194.191,59.387,13.289
2019-07-05T04:20:12,42.805,6.029,4330,1995,194.233,59.400,13.289
2019-07-05T04:23:12,42.805,6.029,4330,1995,194.252,59.406,13.289
2019-07-05T04:26:12,42.805,6.029,4330,1995,194.207,59.392,13.289
2019-07-05T04:29:12,42.805,6.029,4330,1995,194.284,59.415,13.288
2019-07-05T04:32:12,42.805,6.029,4330,1995,194.262,59.409,13.289
2019-07-05T04:35:12,42.805,6.029,4330,1995,194.286,59.416,13.288
2019-07-05T04:38:12,42.805,6.029,4330,1995,194.340,59.433,13.289
2019-07-05T04:41:12,42.805,6.029,4330,1995,194.294,59.418,13.288
2019-07-05T04:44:12,42.805,6.029,4330,1995,194.291,59.418,13.289
2019-07-05T04:47:12,42.805,6.029,4330,1995,194.309,59.423,13.288
2019-07-05T04:50:12,42.805,6.029,4330,1995,194.288,59.417,13.288
2019-07-05T04:53:12,42.805,6.029,4330,1995,194.306,59.422,13.289
2019-07-05T04:56:12,42.805,6.029,4330,1995,194.284,59.415,13.288
2019-07-05T04:59:12,42.805,6.029,4330,1995,194.293,59.418,13.288
2019-07-05T05:02:12,42.805,6.029,4330,1995,194.238,59.401,13.288
2019-07-05T05:05:12,42.805,6.029,4330,1995,194.272,59.411,13.288
2019-07-05T05:08:12,42.805,6.029,4330,1995,194.311,59.423,13.288
2019-07-05T05:11:12,42.805,6.029,4330,1995,194.265,59.409,13.288
2019-07-05T05:17:12,42.805,6.029,4330,1995,194.258,59.405,13.287
2019-07-05T05:20:12,42.805,6.029,4330,1995,194.277,59.413,13.288
2019-07-05T05:23:12,42.805,6.029,4330,1995,194.284,59.415,13.288
2019-07-05T05:26:12,42.805,6.029,4330,1995,194.290,59.418,13.289
2019-07-05T05:29:12,42.805,6.029,4330,1995,194.251,59.406,13.289
2019-07-05T05:32:12,42.805,6.029,4330,1995,194.227,59.398,13.289
2019-07-05T05:35:12,42.805,6.029,4330,1995,194.260,59.408,13.289
2019-07-05T05:38:12,42.805,6.029,4330,1995,194.248,59.405,13.289
2019-07-05T05:41:12,42.805,6.029,4330,1995,194.283,59.415,13.289
2019-07-05T05:44:12,42.805,6.029,4330,1995,194.244,59.404,13.289
2019-07-05T05:47:12,42.805,6.029,4330,1995,194.249,59.405,13.289
2019-07-05T05:50:12,42.805,6.029,4330,1995,194.305,59.422,13.289
2019-07-05T05:53:12,42.805,6.029,4330,1995,194.260,59.408,13.289
2019-07-05T05:56:12,42.805,6.029,4330,1995,194.281,59.415,13.289
2019-07-05T05:59:12,42.805,6.029,4330,1995,194.282,59.415,13.288
2019-07-05T06:02:12,42.805,6.029,4330,1995,194.317,59.425,13.288
2019-07-05T06:05:12,42.805,6.029,4330,1995,194.293,59.418,13.288
2019-07-05T06:08:12,42.805,6.029,4330,1995,194.333,59.430,13.288
2019-07-05T06:11:12,42.805,6.029,4330,1995,194.284,59.415,13.288
2019-07-05T06:14:12,42.805,6.029,4330,1995,194.316,59.424,13.288
2019-07-05T06:17:12,42.805,6.029,4330,1995,194.307,59.422,13.288
2019-07-05T06:20:12,42.805,6.029,4330,1995,194.318,59.425,13.288
2019-07-05T06:23:11,42.805,6.029,4330,1995,194.263,59.408,13.288
2019-07-05T06:26:11,42.805,6.029,4330,1995,194.305,59.421,13.288
2019-07-05T06:29:11,42.805,6.029,4330,1995,194.274,59.411,13.288
2019-07-05T06:32:11,42.805,6.029,4330,1995,194.304,59.421,13.288
2019-07-05T06:35:11,42.805,6.029,4330,1995,194.317,59.424,13.288
2019-07-05T06:38:11,42.805,6.029,4330,1995,194.251,59.404,13.288
2019-07-05T06:41:11,42.805,6.029,4330,1995,194.279,59.412,13.288
2019-07-05T06:44:11,42.805,6.029,4330,1995,194.348,59.434,13.288
2019-07-05T06:47:11,42.805,6.029,4330,1995,194.352,59.435,13.288
2019-07-05T06:50:12,42.805,6.029,4330,1995,194.326,59.427,13.288
2019-07-05T06:53:12,42.805,6.029,4330,1995,194.310,59.423,13.288
2019-07-05T06:56:12,42.805,6.029,4330,1995,194.306,59.421,13.288
2019-07-05T06:59:11,42.805,6.029,4330,1995,194.350,59.435,13.288
2019-07-05T07:02:11,42.805,6.029,4330,1995,194.326,59.427,13.288
2019-07-05T07:05:11,42.805,6.029,4330,1995,194.389,59.447,13.288
2019-07-05T07:08:11,42.805,6.029,4330,1995,194.337,59.430,13.288
2019-07-05T07:11:11,42.805,6.029,4330,1995,194.324,59.427,13.288
2019-07-05T07:14:11,42.805,6.029,4330,1995,194.351,59.435,13.288
2019-07-05T07:17:11,42.805,6.029,4330,1995,194.273,59.412,13.288
2019-07-05T07:20:11,42.805,6.029,4330,1995,194.338,59.431,13.288
2019-07-05T07:23:11,42.805,6.029,4330,1995,194.293,59.418,13.288
2019-07-05T07:26:11,42.805,6.029,4330,1995,194.345,59.434,13.288
2019-07-05T07:29:11,42.805,6.029,4330,1995,194.339,59.432,13.288
2019-07-05T07:32:11,42.805,6.029,4330,1995,194.290,59.417,13.288
2019-07-05T07:35:11,42.805,6.029,4330,1995,194.283,59.415,13.288
2019-07-05T07:38:11,42.805,6.029,4330,1995,194.264,59.409,13.289
2019-07-05T07:41:11,42.805,6.029,4330,1995,194.321,59.427,13.288
2019-07-05T07:44:11,42.805,6.029,4330,1995,194.313,59.425,13.289
2019-07-05T07:50:11,42.805,6.029,4330,1995,194.307,59.420,13.287
2019-07-05T07:53:11,42.805,6.029,4330,1995,194.342,59.431,13.287
2019-07-05T07:56:11,42.805,6.029,4330,1995,194.358,59.437,13.288
2019-07-05T07:59:11,42.805,6.029,4330,1995,194.328,59.428,13.288
2019-07-05T08:02:11,42.805,6.029,4330,1995,194.309,59.422,13.288
2019-07-05T08:05:11,42.805,6.029,4330,1995,194.293,59.418,13.288
2019-07-05T08:08:11,42.805,6.029,4330,1995,194.356,59.436,13.288
2019-07-05T08:11:11,42.805,6.029,4330,1995,194.276,59.412,13.288
2019-07-05T08:14:11,42.805,6.029,4330,1995,194.350,59.435,13.288
2019-07-05T08:17:11,42.805,6.029,4330,1995,194.309,59.423,13.288
2019-07-05T08:20:11,42.805,6.029,4330,1995,194.253,59.405,13.288
2019-07-05T08:23:11,42.805,6.029,4330,1995,194.326,59.427,13.288
2019-07-05T08:26:11,42.805,6.029,4330,1995,194.343,59.433,13.288
2019-07-05T08:29:11,42.805,6.029,4330,1995,194.298,59.419,13.288
2019-07-05T08:32:11,42.805,6.029,4330,1995,194.337,59.432,13.288
2019-07-05T08:35:11,42.805,6.029,4330,1995,194.307,59.422,13.288
2019-07-05T08:38:11,42.805,6.029,4330,1995,194.288,59.416,13.288
2019-07-05T08:41:11,42.805,6.029,4330,1995,194.303,59.421,13.288
2019-07-05T08:44:11,42.805,6.029,4330,1995,194.350,59.435,13.288
2019-07-05T08:47:11,42.805,6.029,4330,1995,194.344,59.434,13.288
2019-07-05T08:50:11,42.805,6.029,4330,1995,194.360,59.439,13.289
2019-07-05T08:53:11,42.805,6.029,4330,1995,194.290,59.417,13.288
2019-07-05T08:56:11,42.805,6.029,4330,1995,194.308,59.423,13.288
2019-07-05T08:59:11,42.805,6.029,4330,1995,194.324,59.428,13.288
2019-07-05T09:02:11,42.805,6.029,4330,1995,194.314,59.425,13.289
2019-07-05T09:05:11,42.805,6.029,4330,1995,194.359,59.438,13.288
2019-07-05T09:08:11,42.805,6.029,4330,1995,194.355,59.437,13.288
2019-07-05T09:11:11,42.805,6.029,4330,1995,194.365,59.440,13.288
2019-07-05T09:14:11,42.805,6.029,4330,1995,194.325,59.428,13.288
2019-07-05T09:17:11,42.805,6.029,4330,1995,194.274,59.412,13.288
2019-07-05T09:20:11,42.805,6.029,4330,1995,194.333,59.430,13.289
2019-07-05T09:23:11,42.805,6.029,4330,1995,194.352,59.436,13.288
2019-07-05T09:26:11,42.805,6.029,4330,1995,194.336,59.431,13.288
2019-07-05T09:29:11,42.805,6.029,4330,1995,194.326,59.427,13.288
2019-07-05T09:32:11,42.805,6.029,4330,1995,194.385,59.446,13.288
2019-07-05T09:35:11,42.805,6.029,4330,1995,194.369,59.441,13.288
2019-07-05T09:38:11,42.805,6.029,4330,1995,194.396,59.449,13.288
2019-07-05T09:41:11,42.805,6.029,4330,1995,194.403,59.451,13.288
2019-07-05T09:44:11,42.805,6.029,4330,1995,194.389,59.446,13.288
2019-07-05T09:47:11,42.805,6.029,4330,1995,194.366,59.439,13.287
2019-07-05T09:50:11,42.805,6.029,4330,1995,194.382,59.444,13.288
2019-07-05T09:53:11,42.805,6.029,4330,1995,194.351,59.435,13.287
2019-07-05T09:56:11,42.805,6.029,4330,1995,194.404,59.451,13.288
2019-07-05T09:59:11,42.805,6.029,4330,1995,194.402,59.450,13.288
2019-07-05T10:02:11,42.805,6.029,4330,1995,194.388,59.446,13.288
2019-07-05T10:05:11,42.805,6.029,4330,1995,194.388,59.446,13.288
2019-07-05T10:08:11,42.805,6.029,4330,1995,194.371,59.441,13.288
2019-07-05T10:11:11,42.805,6.029,4330,1995,194.357,59.437,13.288
2019-07-05T10:14:11,42.805,6.029,4330,1995,194.352,59.435,13.288
2019-07-05T10:17:11,42.805,6.029,4330,1995,194.371,59.441,13.288
2019-07-05T10:20:11,42.805,6.029,4330,1995,194.400,59.450,13.288
2019-07-05T10:26:11,42.805,6.029,4330,1995,194.359,59.438,13.288
2019-07-05T10:29:11,42.805,6.029,4330,1995,194.358,59.437,13.288
2019-07-05T10:32:11,42.805,6.029,4330,1995,194.321,59.426,13.288
2019-07-05T10:35:11,42.805,6.029,4330,1995,194.328,59.429,13.288
2019-07-05T10:38:11,42.805,6.029,4330,1995,194.306,59.422,13.288
2019-07-05T10:41:11,42.805,6.029,4330,1995,194.339,59.431,13.288
2019-07-05T10:44:11,42.805,6.029,4330,1995,194.364,59.439,13.288
2019-07-05T10:47:11,42.805,6.029,4330,1995,194.359,59.437,13.288
2019-07-05T10:50:11,42.805,6.029,4330,1995,194.335,59.430,13.288
2019-07-05T10:53:11,42.805,6.029,4330,1995,194.398,59.449,13.287
2019-07-05T10:56:11,42.805,6.029,4330,1995,194.419,59.455,13.287
2019-07-05T10:59:11,42.805,6.029,4330,1995,194.351,59.434,13.287
2019-07-05T11:02:11,42.805,6.029,4330,1995,194.387,59.445,13.287
2019-07-05T11:05:11,42.805,6.029,4330,1995,194.341,59.432,13.288
2019-07-05T11:08:11,42.805,6.029,4330,1995,194.385,59.445,13.288
2019-07-05T11:11:11,42.805,6.029,4330,1995,194.370,59.441,13.288
2019-07-05T11:14:11,42.805,6.029,4330,1995,194.403,59.451,13.288
2019-07-05T11:17:11,42.805,6.029,4330,1995,194.378,59.443,13.288
2019-07-05T11:20:11,42.805,6.029,4330,1995,194.338,59.431,13.288
2019-07-05T11:23:11,42.805,6.029,4330,1995,194.382,59.444,13.288
2019-07-05T11:26:11,42.805,6.029,4330,1995,194.326,59.427,13.288
2019-07-05T11:29:11,42.805,6.029,4330,1995,194.410,59.453,13.288
2019-07-05T11:32:11,42.805,6.029,4330,1995,194.344,59.433,13.288
2019-07-05T11:35:11,42.805,6.029,4330,1995,194.374,59.442,13.288
2019-07-05T11:38:11,42.805,6.029,4330,1995,194.339,59.432,13.288
2019-07-05T11:41:11,42.805,6.029,4330,1995,194.362,59.439,13.288
2019-07-05T11:44:11,42.805,6.029,4330,1995,194.415,59.455,13.288
2019-07-05T11:47:11,42.805,6.029,4330,1995,194.382,59.445,13.288
2019-07-05T11:50:11,42.805,6.029,4330,1995,194.320,59.426,13.288
2019-07-05T11:53:11,42.805,6.029,4330,1995,194.340,59.432,13.288
2019-07-05T11:56:11,42.805,6.029,4330,1995,194.301,59.420,13.288
2019-07-05T11:59:11,42.805,6.029,4330,1995,194.372,59.442,13.288
2019-07-05T12:02:11,42.805,6.029,4330,1995,194.363,59.439,13.288
2019-07-05T12:05:11,42.805,6.029,4330,1995,194.403,59.451,13.288
2019-07-05T12:08:11,42.805,6.029,4330,1995,194.389,59.447,13.288
2019-07-05T12:11:11,42.805,6.029,4330,1995,194.398,59.450,13.288
2019-07-05T12:14:11,42.805,6.029,4330,1995,194.420,59.457,13.288
2019-07-05T12:17:11,42.805,6.029,4330,1995,194.418,59.456,13.288
2019-07-05T12:20:11,42.805,6.029,4330,1995,194.396,59.449,13.288
2019-07-05T12:23:11,42.805,6.029,4330,1995,194.365,59.440,13.289
2019-07-05T12:26:11,42.805,6.029,4330,1995,194.330,59.430,13.289
2019-07-05T12:29:11,42.805,6.029,4330,1995,194.334,59.431,13.288
2019-07-05T12:32:11,42.805,6.029,4330,1995,194.372,59.442,13.289
2019-07-05T12:35:11,42.805,6.029,4330,1995,194.326,59.428,13.289
2019-07-05T12:38:11,42.805,6.029,4330,1995,194.331,59.430,13.289
2019-07-05T12:41:11,42.805,6.029,4330,1995,194.359,59.438,13.288
2019-07-05T12:44:11,42.805,6.029,4330,1995,194.301,59.420,13.288
2019-07-05T12:47:11,42.805,6.029,4330,1995,194.329,59.429,13.288
2019-07-05T12:50:11,42.805,6.029,4330,1995,194.341,59.432,13.288
2019-07-05T12:53:11,42.805,6.029,4330,1995,194.301,59.420,13.288
2019-07-05T12:56:11,42.805,6.029,4330,1995,194.384,59.445,13.288
2019-07-05T13:02:11,42.805,6.029,4330,1995,194.352,59.434,13.287
2019-07-05T13:05:11,42.805,6.029,4330,1995,194.430,59.459,13.288
2019-07-05T13:08:11,42.805,6.029,4330,1995,194.388,59.447,13.288
2019-07-05T13:11:11,42.805,6.029,4330,1995,194.404,59.452,13.288
2019-07-05T13:14:11,42.805,6.029,4330,1995,194.398,59.450,13.288
2019-07-05T13:17:11,42.805,6.029,4330,1995,194.388,59.447,13.288
2019-07-05T13:20:11,42.805,6.029,4330,1995,194.346,59.434,13.288
2019-07-05T13:23:11,42.805,6.029,4330,1995,194.400,59.451,13.288
2019-07-05T13:26:11,42.805,6.029,4330,1995,194.388,59.447,13.289
2019-07-05T13:29:11,42.805,6.029,4330,1995,194.375,59.443,13.288
2019-07-05T13:32:11,42.805,6.029,4330,1995,194.375,59.443,13.288
2019-07-05T13:35:11,42.805,6.029,4330,1995,194.391,59.448,13.289
2019-07-05T13:38:11,42.805,6.029,4330,1995,194.346,59.434,13.288
2019-07-05T13:41:11,42.805,6.029,4330,1995,194.357,59.438,13.288
2019-07-05T13:44:11,42.805,6.029,4330,1995,194.415,59.455,13.288
2019-07-05T13:47:11,42.805,6.029,4330,1995,194.350,59.436,13.289
2019-07-05T13:50:11,42.805,6.029,4330,1995,194.341,59.432,13.288
2019-07-05T13:53:11,42.805,6.029,4330,1995,194.345,59.434,13.288
2019-07-05T13:56:11,42.805,6.029,4330,1995,194.353,59.436,13.288
2019-07-05T13:59:11,42.805,6.029,4330,1995,194.325,59.427,13.288
2019-07-05T14:02:11,42.805,6.029,4330,1995,194.368,59.440,13.288
2019-07-05T14:05:11,42.805,6.029,4330,1995,194.328,59.428,13.288
2019-07-05T14:08:11,42.805,6.029,4330,1995,194.272,59.411,13.288
2019-07-05T14:11:11,42.805,6.029,4330,1995,194.262,59.408,13.288
2019-07-05T14:14:11,42.805,6.029,4330,1995,194.277,59.412,13.288
2019-07-05T14:17:11,42.805,6.029,4330,1995,194.307,59.422,13.288
2019-07-05T14:20:11,42.805,6.029,4330,1995,194.211,59.392,13.288
2019-07-05T14:23:11,42.805,6.029,4330,1995,194.282,59.414,13.288
2019-07-05T14:26:11,42.805,6.029,4330,1995,194.278,59.413,13.288
2019-07-05T14:29:11,42.805,6.029,4330,1995,194.316,59.424,13.288
2019-07-05T14:32:11,42.805,6.029,4330,1995,194.290,59.416,13.288
2019-07-05T14:35:11,42.805,6.029,4330,1995,194.313,59.424,13.288
2019-07-05T14:38:11,42.805,6.029,4330,1995,194.262,59.408,13.288
2019-07-05T14:41:11,42.805,6.029,4330,1995,194.251,59.405,13.288
2019-07-05T14:44:11,42.805,6.029,4330,1995,194.255,59.406,13.288
2019-07-05T14:47:11,42.805,6.029,4330,1995,194.304,59.421,13.288
2019-07-05T14:50:11,42.805,6.029,4330,1995,194.267,59.409,13.288
2019-07-05T14:53:11,42.805,6.029,4330,1995,194.257,59.407,13.288
2019-07-05T14:56:11,42.805,6.029,4330,1995,194.228,59.398,13.288
2019-07-05T14:59:11,42.805,6.029,4330,1995,194.244,59.403,13.288
2019-07-05T15:02:11,42.805,6.029,4330,1995,194.290,59.417,13.288
2019-07-05T15:05:11,42.805,6.029,4330,1995,194.245,59.403,13.288
2019-07-05T15:08:11,42.805,6.029,4330,1995,194.248,59.404,13.288
2019-07-05T15:11:11,42.805,6.029,4330,1995,194.258,59.407,13.288
2019-07-05T15:14:11,42.805,6.029,4330,1995,194.224,59.397,13.288
2019-07-05T15:17:11,42.805,6.029,4330,1995,194.244,59.403,13.289
2019-07-05T15:20:11,42.805,6.029,4330,1995,194.207,59.392,13.289
2019-07-05T15:23:11,42.805,6.029,4330,1995,194.258,59.407,13.288
2019-07-05T15:26:11,42.805,6.029,4330,1995,194.293,59.418,13.289
2019-07-05T15:29:11,42.805,6.029,4330,1995,194.313,59.424,13.289
2019-07-05T15:35:11,42.805,6.029,4330,1995,194.209,59.391,13.287
2019-07-05T15:38:11,42.805,6.029,4330,1995,194.218,59.393,13.287
2019-07-05T15:41:11,42.805,6.029,4330,1995,194.241,59.401,13.288
2019-07-05T15:44:11,42.805,6.029,4330,1995,194.251,59.404,13.288
2019-07-05T15:47:11,42.805,6.029,4330,1995,194.220,59.395,13.288
2019-07-05T15:50:11,42.805,6.029,4330,1995,194.262,59.408,13.288
2019-07-05T15:53:11,42.805,6.029,4330,1995,194.201,59.389,13.288
2019-07-05T15:56:11,42.805,6.029,4330,1995,194.190,59.386,13.288
2019-07-05T15:59:11,42.805,6.029,4330,1995,194.178,59.383,13.288
2019-07-05T16:02:11,42.805,6.029,4330,1995,194.226,59.397,13.288
2019-07-05T16:05:11,42.805,6.029,4330,1995,194.154,59.376,13.288
2019-07-05T16:08:11,42.805,6.029,4330,1995,194.216,59.395,13.289
2019-07-05T16:11:11,42.805,6.029,4330,1995,194.171,59.381,13.288
2019-07-05T16:14:11,42.805,6.029,4330,1995,194.173,59.381,13.288
2019-07-05T16:17:11,42.805,6.029,4330,1995,194.219,59.396,13.289
2019-07-05T16:20:11,42.805,6.029,4330,1995,194.175,59.382,13.289
2019-07-05T16:23:11,42.805,6.029,4330,1995,194.165,59.379,13.289
2019-07-05T16:26:11,42.805,6.029,4330,1995,194.169,59.380,13.289
2019-07-05T16:29:11,42.805,6.029,4330,1995,194.260,59.408,13.289
2019-07-05T16:32:11,42.805,6.029,4330,1995,194.173,59.382,13.289
2019-07-05T16:35:11,42.805,6.029,4330,1995,194.161,59.378,13.289
2019-07-05T16:38:11,42.805,6.029,4330,1995,194.155,59.376,13.289
2019-07-05T16:41:11,42.805,6.029,4330,1995,194.210,59.393,13.289
2019-07-05T16:44:11,42.805,6.029,4330,1995,194.196,59.389,13.289
2019-07-05T16:47:11,42.805,6.029,4330,1995,194.184,59.386,13.289
2019-07-05T16:50:11,42.805,6.029,4330,1995,194.167,59.380,13.289
2019-07-05T16:53:11,42.805,6.029,4330,1995,194.184,59.386,13.289
2019-07-05T16:56:11,42.805,6.029,4330,1995,194.112,59.363,13.289
2019-07-05T16:59:11,42.805,6.029,4330,1995,194.157,59.377,13.289
2019-07-05T17:02:11,42.805,6.029,4330,1995,194.138,59.372,13.289
2019-07-05T17:05:11,42.805,6.029,4330,1995,194.139,59.371,13.289
2019-07-05T17:08:11,42.805,6.029,4330,1995,194.123,59.367,13.289
2019-07-05T17:11:11,42.805,6.029,4330,1995,194.131,59.369,13.288
2019-07-05T17:14:11,42.805,6.029,4330,1995,194.105,59.361,13.289
2019-07-05T17:17:11,42.805,6.029,4330,1995,194.097,59.359,13.289
2019-07-05T17:20:11,42.805,6.029,4330,1995,194.133,59.369,13.288
2019-07-05T17:23:11,42.805,6.029,4330,1995,194.147,59.373,13.288
2019-07-05T17:26:11,42.805,6.029,4330,1995,194.134,59.369,13.288
2019-07-05T17:29:11,42.805,6.029,4330,1995,194.162,59.377,13.288
2019-07-05T17:32:11,42.805,6.029,4330,1995,194.105,59.360,13.288
2019-07-05T17:35:11,42.805,6.029,4330,1995,194.133,59.368,13.288
2019-07-05T17:38:11,42.805,6.029,4330,1995,194.152,59.374,13.288
2019-07-05T17:41:11,42.805,6.029,4330,1995,194.209,59.392,13.288
2019-07-05T17:44:11,42.805,6.029,4330,1995,194.105,59.360,13.288
2019-07-05T17:47:11,42.805,6.029,4330,1995,194.114,59.363,13.288
2019-07-05T17:50:11,42.805,6.029,4330,1995,194.101,59.359,13.288
2019-07-05T17:53:11,42.805,6.029,4330,1995,194.086,59.354,13.288
2019-07-05T17:56:11,42.805,6.029,4330,1995,194.083,59.353,13.288
2019-07-05T17:59:11,42.805,6.029,4330,1995,194.054,59.345,13.288
2019-07-05T18:02:11,42.805,6.029,4330,1995,194.090,59.356,13.288
2019-07-05T18:05:11,42.805,6.029,4330,1995,194.071,59.350,13.289
2019-07-05T18:11:11,42.805,6.029,4330,1995,194.095,59.358,13.288
2019-07-05T18:14:11,42.805,6.029,4330,1995,194.112,59.363,13.288
2019-07-05T18:17:11,42.805,6.029,4330,1995,194.047,59.343,13.289
2019-07-05T18:20:11,42.805,6.029,4330,1995,194.103,59.360,13.289
2019-07-05T18:23:11,42.805,6.029,4330,1995,194.064,59.348,13.289
2019-07-05T18:26:11,42.805,6.029,4330,1995,194.012,59.332,13.288
2019-07-05T18:29:11,42.805,6.029,4330,1995,194.005,59.330,13.288
2019-07-05T18:32:11,42.805,6.029,4330,1995,194.039,59.340,13.288